Flag for France Weather past 2 weeks in Montpellier, France

Now
48 °F

Passing clouds.


Feels Like: 41 °F
Forecast: 42 / 55 °F
Wind: 22 mph from North

Location: Montpellier Airport

Current Time: Mar 4, 2015 at 8:02:13 PM

Latest Report: Mar 4, 2015 at 7:00 PM


Visibility: N/A

Pressure: 30.27 "Hg

Humidity: 40%

Dew point: 25 °F

Location of MontpellierLocation

Historic Weather in Montpellier — Graph

°F

Montpellier temperature yesterday

Maximum temperature yesterday: 61 °F (at 11:30 AM)
Minimum temperature yesterday: 48 °F (at 8:00 AM)
Average temperature yesterday: 54 °F

Past Weeks' High & Low Weather Summary

 TemperatureHumidityPressure
High66 °F (Mar 2, 11:12 AM)94% (Feb 21, 10:00 AM)30.57 "Hg (Feb 21, 10:00 AM)
Low32 °F (Feb 20, 5:00 AM)22% (Feb 25, 3:30 PM)29.56 "Hg (Feb 21, 2:30 PM)
Average50 °F62%30.06 "Hg
* Reported Feb 17 7:00 PM — Mar 4 7:00 PM, Montpellier, Weather by CustomWeather, © 2015

Note: Actual official high and low records may vary slightly from our data, if they occured in-between our weather recording intervals... More about our weather records

Advertising

Montpellier weather history for previous 24 hours

 ConditionsComfort  
Time TempWeatherWind HumidityBarometerVisibility
7:00 PM
Wed, Mar 4
48 °FPassing clouds.22 mph40%30.27 "HgN/A
6:30 PM50 °FSunny.18 mph37%30.27 "Hg10 mi
6:00 PM52 °FPartly sunny.24 mph35%30.27 "HgN/A
5:30 PM52 °FSunny.18 mph38%30.24 "Hg10 mi
5:00 PM54 °FSunny.20 mph38%30.24 "Hg10 mi
4:30 PM54 °FSunny.17 mph35%30.24 "Hg10 mi
4:00 PM54 °FSunny.14 mph35%30.27 "Hg10 mi
3:30 PM54 °FSunny.17 mph38%30.27 "Hg10 mi
3:00 PM54 °FSunny.16 mph41%30.27 "Hg10 mi
2:30 PM52 °FSunny.16 mph50%30.27 "Hg10 mi
2:00 PM52 °FSunny.21 mph54%30.27 "Hg10 mi
1:30 PM54 °FMostly cloudy.15 mph58%30.27 "HgN/A
1:00 PM52 °FRain. Mostly cloudy.3 mph72%30.27 "HgN/A
12:30 PM52 °FRain. Mostly cloudy.3 mph72%30.27 "HgN/A
12:00 PM52 °FPartly sunny.6 mph72%30.27 "HgN/A
11:30 AM52 °FLight rain. Partly sunny.7 mph72%30.27 "HgN/A
11:00 AM52 °FLight rain. Partly sunny.7 mph77%30.30 "HgN/A
10:30 AM52 °FLight rain. Partly sunny.7 mph82%30.30 "HgN/A
10:00 AM54 °FLight rain. Broken clouds.6 mph72%30.27 "HgN/A
9:30 AM54 °FLight rain. Partly sunny.7 mph72%30.27 "HgN/A
9:00 AM52 °FLight rain. Clear.5 mph82%30.27 "HgN/A
8:30 AM52 °FLight rain. Clear.3 mph77%30.24 "HgN/A
8:00 AM52 °FLight rain. Clear.6 mph77%30.24 "HgN/A
7:30 AM52 °FLight rain. Clear.6 mph77%30.24 "HgN/A
7:00 AM50 °FLight rain. Clear.6 mph88%30.24 "HgN/A
6:30 AM50 °FLight rain. Clear.5 mph88%30.24 "HgN/A
6:00 AM52 °FLight rain. Clear.3 mph82%30.24 "HgN/A
5:30 AM52 °FLight rain. Clear.5 mph72%30.24 "HgN/A
5:00 AM54 °FClear.2 mph67%30.24 "Hg10 mi
4:30 AM54 °FClear.5 mph67%30.24 "Hg10 mi
4:00 AM52 °FClear.6 mph72%30.24 "Hg10 mi
3:30 AM52 °FClear.5 mph77%30.21 "HgN/A
3:00 AM52 °FClear.2 mph77%30.24 "HgN/A
2:30 AM52 °FClear.2 mph77%30.24 "HgN/A
2:00 AM52 °FClear.No wind82%30.24 "HgN/A
1:30 AM52 °FClear.3 mph82%30.24 "HgN/A
1:00 AM52 °FClear.No wind88%30.24 "HgN/A
12:30 AM52 °FClear.No wind82%30.24 "HgN/A
12:00 AM54 °FClear.5 mph82%30.24 "Hg10 mi
11:30 PM
Tue, Mar 3
54 °FClear.6 mph82%30.27 "Hg10 mi
11:00 PM54 °FClear.9 mph88%30.24 "Hg10 mi
10:30 PM54 °FClear.10 mph88%30.24 "Hg10 mi
10:00 PM54 °FClear.6 mph82%30.24 "Hg10 mi
9:30 PM54 °FClear.3 mph82%30.27 "Hg10 mi
8:30 PM54 °FClear.10 mph82%30.24 "Hg10 mi
8:00 PM55 °FClear.13 mph72%30.24 "Hg10 mi
Weather by CustomWeather, © 2015

See weather overviewHow to use our weather pages